GW1201 Weather Reports


time (UTC)temp
C
wind
direction
speed
KPH
gust
KPH
rain 1hr
cm
rain 24hr
cm
rain mn
cm
humidity
%
barometer
mb
20260506224353 17 263 6.4 16.1 0.00 0.00 0.00 83 1013.1
20260506223849 17 18 8.0 11.3 0.00 0.00 0.00 83 1013.1
20260506223345 17 70 4.8 12.9 0.00 0.00 0.00 82 1013.0
20260506222842 17 19 4.8 12.9 0.00 0.00 0.00 82 1012.9
20260506222338 18 23 4.8 14.5 0.00 0.00 0.00 81 1013.0
20260506221836 18 58 4.8 16.1 0.00 0.00 0.00 81 1012.8
20260506221333 17 11 4.8 12.9 0.00 0.00 0.00 82 1012.7
20260506220831 18 47 4.8 12.9 0.00 0.00 0.00 80 1013.0
20260506220326 18 80 4.8 11.3 0.00 0.00 0.00 81 1013.1
20260506215823 18 14 6.4 12.9 0.00 0.00 0.00 81 1012.9
20260506215318 18 120 3.2 17.7 0.00 0.00 0.00 81 1013.1
20260506214814 18 146 4.8 11.3 0.00 0.00 0.00 81 1013.0
20260506214311 18 349 3.2 12.9 0.00 0.00 0.00 82 1013.0
20260506213810 18 289 6.4 19.3 0.00 0.00 0.00 81 1012.7
20260506213306 19 23 9.7 11.3 0.00 0.00 0.00 80 1013.0
20260506212804 18 112 4.8 16.1 0.00 0.00 0.00 80 1012.7
20260506212259 18 353 4.8 12.9 0.00 0.00 0.00 80 1012.8
20260506211754 19 72 3.2 12.9 0.00 0.00 0.00 79 1012.7
20260506211251 20 76 8.0 16.1 0.00 0.00 0.00 78 1012.7
20260506210748 20 10 4.8 17.7 0.00 0.00 0.00 77 1012.8
20260506210245 20 62 6.4 14.5 0.00 0.00 0.00 77 1012.8
20260506205742 21 341 8.0 24.1 0.00 0.00 0.00 76 1012.7
20260506205238 21 105 3.2 9.7 0.00 0.00 0.00 77 1013.0
20260506204735 21 9 8.0 16.1 0.00 0.00 0.00 77 1012.7
20260506204232 21 18 6.4 17.7 0.00 0.00 0.00 76 1012.8
20260506203730 21 11 8.0 12.9 0.00 0.00 0.00 78 1012.7
20260506203221 22 43 11.3 14.5 0.00 0.00 0.00 76 1013.1
20260506202719 22 73 3.2 9.7 0.00 0.00 0.00 76 1013.1
20260506202215 22 171 3.2 11.3 0.00 0.00 0.00 75 1013.0
20260506201712 22 325 4.8 9.7 0.00 0.00 0.00 78 1013.1
20260506201209 22 5 4.8 16.1 0.00 0.00 0.00 77 1013.3
20260506200706 22 36 3.2 16.1 0.00 0.00 0.00 78 1013.1
20260506200203 22 56 3.2 12.9 0.00 0.00 0.00 76 1013.0
20260506195659 22 324 3.2 16.1 0.00 0.00 0.00 78 1012.8
20260506195155 22 75 8.0 12.9 0.00 0.00 0.00 77 1012.9
20260506194653 22 355 4.8 9.7 0.00 0.00 0.00 76 1012.9
20260506194149 22 102 3.2 14.5 0.00 0.00 0.00 78 1012.7
20260506193647 23 20 11.3 19.3 0.00 0.00 0.00 76 1012.5
20260506193144 23 49 4.8 14.5 0.00 0.00 0.00 76 1012.5
20260506192640 23 86 4.8 20.9 0.00 0.00 0.00 79 1012.5
20260506192136 23 357 0.0 16.1 0.00 0.00 0.00 80 1012.5
20260506191634 24 74 6.4 12.9 0.00 0.00 0.00 79 1012.5
20260506191129 25 36 3.2 16.1 0.00 0.00 0.00 75 1012.3
20260506190627 25 355 4.8 6.4 0.00 0.00 0.00 75 1012.6
20260506190124 25 49 8.0 11.3 0.00 0.00 0.00 76 1012.7
20260506185621 26 6 0.0 4.8 0.00 0.00 0.00 78 1012.6
20260506185117 26 349 8.0 8.0 0.00 0.00 0.00 76 1012.5
20260506184614 26 358 6.4 8.0 0.00 0.00 0.00 76 1012.4
20260506184112 26 95 3.2 11.3 0.00 0.00 0.00 74 1012.5
20260506183608 26 98 0.0 9.7 0.00 0.00 0.00 75 1012.5
20260506183104 26 336 3.2 8.0 0.00 0.00 0.00 77 1012.3
20260506182602 26 75 3.2 6.4 0.00 0.00 0.00 76 1012.3
20260506182059 25 85 6.4 9.7 0.00 0.00 0.00 76 1012.2
20260506181557 25 57 6.4 9.7 0.00 0.00 0.00 77 1012.4
20260506181053 25 8 4.8 9.7 0.00 0.00 0.00 76 1012.5
20260506180550 25 39 4.8 6.4 0.00 0.00 0.00 78 1012.4
20260506180047 25 57 3.2 12.9 0.00 0.00 0.00 79 1012.7
20260506175543 24 87 6.4 9.7 0.00 0.00 0.00 78 1012.5
20260506175039 24 67 4.8 8.0 0.00 0.00 0.00 79 1012.3
20260506174538 23 14 0.0 12.9 0.00 0.00 0.00 80 1012.4
20260506174034 23 26 4.8 8.0 0.00 0.00 0.00 80 1012.5
20260506173532 22 71 4.8 6.4 0.00 0.00 0.00 80 1012.5
20260506173028 23 344 4.8 9.7 0.00 0.00 0.00 77 1012.5
20260506172526 23 29 1.6 9.7 0.00 0.00 0.00 81 1012.5
20260506172022 22 0 3.2 8.0 0.00 0.00 0.00 80 1012.6
20260506171519 22 150 3.2 11.3 0.00 0.00 0.00 83 1012.8
20260506171017 21 17 3.2 14.5 0.00 0.00 0.00 83 1012.8
20260506170514 21 19 6.4 11.3 0.00 0.00 0.00 81 1012.9
20260506170006 21 22 6.4 8.0 0.00 0.00 0.00 82 1012.7
20260506165504 21 328 6.4 8.0 0.00 0.00 0.00 84 1012.9
20260506165000 20 57 4.8 11.3 0.00 0.00 0.00 84 1013.0
20260506164457 20 69 4.8 11.3 0.00 0.00 0.00 86 1013.0
20260506163954 20 78 4.8 11.3 0.00 0.00 0.00 87 1013.2
20260506163449 18 25 4.8 9.7 0.00 0.00 0.00 88 1013.1
20260506162944 18 13 6.4 12.9 0.00 0.00 0.00 88 1013.3
20260506162442 19 50 8.0 12.9 0.00 0.00 0.00 89 1013.6
20260506161939 19 322 6.4 16.1 0.00 0.00 0.00 89 1013.9
20260506161437 20 22 8.0 16.1 0.00 0.00 0.00 89 1013.8
20260506160934 20 68 3.2 12.9 0.00 0.00 0.00 90 1013.9
20260506160432 20 64 4.8 14.5 0.00 0.00 0.00 89 1014.1
20260506155929 21 59 6.4 14.5 0.00 0.00 0.00 88 1013.7
20260506155426 22 345 6.4 14.5 0.00 0.00 0.00 87 1013.5
20260506153548 25 0 0.0 3.2 0.00 0.00 0.00 89 1012.8
20260506153045 25 66 3.2 3.2 0.00 0.00 0.00 89 1012.9
20260506152542 25 14 1.6 3.2 0.00 0.00 0.00 89 1012.8
20260506152040 24 15 0.0 3.2 0.00 0.00 0.00 89 1012.5
20260506151538 25 14 0.0 4.8 0.00 0.00 0.00 89 1012.3
20260506151035 25 0 0.0 3.2 0.00 0.00 0.00 89 1012.3
20260506150531 25 66 1.6 3.2 0.00 0.00 0.00 90 1012.0
20260506150028 24 228 3.2 4.8 0.00 0.00 0.00 90 1011.9
20260506145525 24 188 0.0 4.8 0.00 0.00 0.00 90 1011.9
20260506145023 25 99 0.0 4.8 0.00 0.00 0.00 90 1011.6
20260506144519 25 117 3.2 3.2 0.00 0.00 0.00 90 1011.4
20260506144017 25 229 0.0 3.2 0.00 0.00 0.00 90 1011.8
20260506143514 24 148 3.2 6.4 0.00 0.00 0.00 90 1011.8
20260506143013 25 180 0.0 4.8 0.00 0.00 0.00 91 1011.7
20260506142510 24 245 6.4 8.0 0.00 0.00 0.00 91 1011.2
20260506142008 24 180 0.0 6.4 0.00 0.00 0.00 91 1010.9
20260506141505 24 209 3.2 8.0 0.00 0.00 0.00 91 1011.2
20260506141004 23 166 3.2 6.4 0.00 0.00 0.00 92 1011.6
20260506140500 23 132 6.4 6.4 0.00 0.00 0.00 92 1011.5
20260506135957 23 229 8.0 8.0 0.00 0.00 0.00 92 1011.7
20260506135454 23 263 1.6 4.8 0.00 0.00 0.00 93 1011.7
20260506134950 23 202 3.2 4.8 0.00 0.00 0.00 93 1011.2
20260506134446 23 111 0.0 4.8 0.00 0.00 0.00 93 1010.5
20260506133943 23 246 0.0 6.4 0.00 0.00 0.00 94 1010.7
20260506133440 23 185 1.6 4.8 0.00 0.00 0.00 94 1010.6
20260506132937 23 134 6.4 6.4 0.00 0.00 0.00 94 1010.7
20260506132434 23 245 0.0 4.8 0.00 0.00 0.00 94 1010.6
20260506131932 23 162 3.2 6.4 0.00 0.00 0.00 94 1010.6
20260506131428 23 237 3.2 3.2 0.00 0.00 0.00 94 1010.6
20260506130925 23 180 0.0 4.8 0.00 0.00 0.00 94 1010.6
20260506130421 23 81 0.0 6.4 0.00 0.00 0.00 94 1010.4
20260506125920 23 245 3.2 6.4 0.00 0.00 0.00 94 1010.4
20260506125418 23 124 0.0 6.4 0.00 0.00 0.00 94 1010.3
20260506124916 23 270 0.0 1.6 0.00 0.00 0.00 94 1010.2
20260506124413 23 84 4.8 4.8 0.00 0.00 0.00 95 1010.4
20260506123911 22 117 4.8 6.4 0.00 0.00 0.00 94 1010.3
20260506123408 23 74 0.0 3.2 0.00 0.00 0.00 94 1010.2
20260506122906 23 166 0.0 1.6 0.00 0.00 0.00 94 1010.4
20260506122402 23 120 0.0 3.2 0.00 0.00 0.00 94 1010.3
20260506121901 22 81 0.0 3.2 0.00 0.00 0.00 94 1010.4
20260506121357 23 66 0.0 1.6 0.00 0.00 0.00 94 1010.4
20260506120854 23 195 0.0 0.0 0.00 0.00 0.00 94 1010.5
20260506120352 23 157 0.0 0.0 0.00 0.00 0.00 94 1010.5
20260506115849 23 157 0.0 0.0 0.00 0.00 0.00 94 1010.2
20260506115347 23 99 0.0 0.0 0.00 0.00 0.00 94 1010.0
20260506114845 23 180 0.0 1.6 0.00 0.00 0.00 94 1010.2
20260506114342 23 97 0.0 0.0 0.00 0.00 0.00 94 1010.2
20260506113841 23 123 3.2 3.2 0.00 0.00 0.00 94 1010.3
20260506113338 23 106 0.0 1.6 0.00 0.00 0.00 94 1010.1
20260506112834 23 99 0.0 1.6 0.00 0.00 0.00 93 1010.2
20260506112332 23 270 0.0 0.0 0.00 0.00 0.00 93 1010.1
20260506111829 23 180 0.0 0.0 0.00 0.00 0.00 93 1010.2
20260506111327 23 175 0.0 4.8 0.00 0.00 0.00 93 1010.0
20260506110824 23 172 0.0 3.2 0.00 0.00 0.00 93 1010.2
20260506110321 23 225 0.0 3.2 0.00 0.00 0.00 93 1010.2
20260506105818 23 195 0.0 1.6 0.00 0.00 0.00 93 1009.9
20260506105315 23 188 0.0 4.8 0.00 0.00 0.00 93 1010.1
20260506104812 23 270 0.0 0.0 0.00 0.00 0.00 93 1009.9
20260506104310 23 261 0.0 0.0 0.00 0.00 0.00 93 1009.9
20260506103807 23 186 0.0 6.4 0.00 0.00 0.00 93 1009.8
20260506103305 23 222 4.8 8.0 0.00 0.00 0.00 93 1009.7
20260506102802 23 215 1.6 9.7 0.00 0.00 0.00 94 1009.4
20260506102300 23 173 4.8 11.3 0.00 0.00 0.00 93 1009.7
20260506101757 23 135 0.0 6.4 0.00 0.00 0.00 93 1009.4
20260506101253 23 180 0.0 12.9 0.00 0.00 0.00 93 1009.7
20260506100751 23 97 1.6 12.9 0.00 0.00 0.00 93 1009.6
20260506100249 23 221 3.2 9.7 0.00 0.00 0.00 93 1009.5
20260506095747 23 246 0.0 6.4 0.00 0.00 0.00 93 1009.6
20260506095244 23 206 3.2 11.3 0.00 0.00 0.00 93 1009.4
20260506094740 23 218 4.8 8.0 0.00 0.00 0.00 93 1009.3
20260506094239 23 270 8.0 8.0 0.00 0.00 0.00 93 1009.5
20260506093737 23 227 11.3 12.9 0.00 0.00 0.00 93 1009.4
20260506093234 23 128 0.0 8.0 0.00 0.00 0.00 93 1009.4
20260506092732 23 156 8.0 16.1 0.00 0.00 0.00 93 1009.4
20260506092229 23 190 3.2 11.3 0.00 0.00 0.00 93 1009.2
20260506091726 23 229 6.4 14.5 0.00 0.00 0.00 93 1009.1
20260506091224 23 180 0.0 11.3 0.00 0.00 0.00 93 1009.1
20260506090722 23 222 0.0 14.5 0.00 0.00 0.00 93 1009.1
20260506090218 23 217 3.2 6.4 0.00 0.00 0.00 93 1009.0
20260506085715 23 254 3.2 12.9 0.00 0.00 0.00 93 1008.9
20260506085211 23 170 4.8 16.1 0.00 0.00 0.00 93 1008.8
20260506084708 23 241 4.8 14.5 0.00 0.00 0.00 93 1009.1
20260506084204 23 243 9.7 11.3 0.00 0.00 0.00 93 1009.0
20260506083701 23 162 1.6 12.9 0.00 0.00 0.00 94 1009.2
20260506083159 23 245 3.2 11.3 0.00 0.00 0.00 94 1009.0
20260506082656 23 180 6.4 12.9 0.00 0.00 0.00 93 1009.1
20260506082156 23 135 9.7 9.7 0.00 0.00 0.00 93 1009.0
20260506081655 23 185 4.8 9.7 0.00 0.00 0.00 93 1009.3
20260506081152 23 180 0.0 17.7 0.00 0.00 0.00 93 1009.1
20260506080650 23 229 14.5 16.1 0.00 0.00 0.00 93 1009.2
20260506080146 23 198 0.0 11.3 0.00 0.00 0.00 93 1009.2
20260506073130 23 99 0.0 12.9 0.00 0.00 0.00 92 1009.5
20260506072626 23 202 8.0 16.1 0.00 0.00 0.00 92 1009.4
20260506072125 23 117 4.8 12.9 0.00 0.00 0.00 92 1009.6
20260506071622 23 198 1.6 17.7 0.00 0.00 0.00 92 1009.6
20260506071120 23 156 12.9 12.9 0.00 0.00 0.00 92 1009.5
20260506070616 23 170 4.8 14.5 0.00 0.00 0.00 92 1009.5
20260506070114 23 236 4.8 17.7 0.00 0.00 0.00 92 1009.6
20260506062051 23 160 6.4 16.1 0.00 0.00 0.00 92 1009.6
20260506061546 23 209 0.0 12.9 0.00 0.00 0.00 92 1009.6
20260506061044 23 225 6.4 14.5 0.00 0.00 0.00 92 1009.4
20260506060543 23 159 8.0 16.1 0.00 0.00 0.00 92 1009.5
20260506051012 23 174 4.8 17.7 0.00 0.00 0.00 91 1009.5
20260506050509 23 192 6.4 20.9 0.00 0.00 0.00 91 1009.8
20260506045000 24 208 3.2 11.3 0.00 0.00 0.00 91 1009.8
20260506044458 24 200 8.0 12.9 0.00 0.00 0.00 91 1009.7
20260506043954 24 183 3.2 11.3 0.00 0.00 0.00 91 1009.4
20260506043451 23 191 4.8 17.7 0.00 0.00 0.00 91 1009.9
20260506042949 23 226 16.1 24.1 0.00 0.00 0.00 92 1009.5
20260506042448 24 119 4.8 16.1 0.00 0.00 0.00 92 1009.7
20260506041946 24 213 4.8 17.7 0.00 0.00 0.00 92 1009.7
20260506041444 24 140 6.4 11.3 0.00 0.00 0.00 92 1009.3
20260506040941 24 138 4.8 14.5 0.00 0.00 0.00 92 1009.6
20260506040438 24 186 6.4 6.4 0.00 0.00 0.00 91 1009.3
20260506035934 24 180 1.6 8.0 0.00 0.00 0.00 92 1009.4
20260506035432 24 179 8.0 9.7 0.00 0.00 0.00 92 1009.3
20260506034928 24 200 4.8 6.4 0.00 0.00 0.00 91 1009.2
20260506034426 24 240 0.0 8.0 0.00 0.00 0.00 91 1009.1
20260506033923 24 178 6.4 6.4 0.00 0.00 0.00 91 1009.3
20260506033420 24 225 8.0 9.7 0.00 0.00 0.00 91 1009.0
20260506032917 24 165 4.8 6.4 0.00 0.00 0.00 91 1009.0
20260506032414 24 261 0.0 4.8 0.00 0.00 0.00 91 1008.9
20260506031910 24 208 4.8 11.3 0.00 0.00 0.00 91 1008.8
20260506031408 24 255 1.6 8.0 0.00 0.00 0.00 90 1008.8
20260506030905 24 203 11.3 11.3 0.00 0.00 0.00 90 1008.7
20260506030403 24 119 9.7 9.7 0.00 0.00 0.00 90 1008.6
20260506025859 24 201 4.8 9.7 0.00 0.00 0.00 89 1008.6
20260506025356 25 262 0.0 11.3 0.00 0.00 0.00 89 1008.5
20260506024853 25 176 0.0 12.9 0.00 0.00 0.00 89 1008.5
20260506024350 25 174 1.6 11.3 0.00 0.00 0.00 89 1008.5
20260506023846 25 219 0.0 11.3 0.00 0.00 0.00 88 1008.3
20260506023343 25 180 4.8 11.3 0.00 0.00 0.00 87 1008.3
20260506022840 25 194 4.8 11.3 0.00 0.00 0.00 87 1008.2
20260506022338 25 174 4.8 8.0 0.00 0.00 0.00 87 1008.0
20260506021836 25 180 3.2 3.2 0.00 0.00 0.00 87 1008.0
20260506021332 25 187 1.6 6.4 0.00 0.00 0.00 86 1007.9
20260506020829 25 220 3.2 4.8 0.00 0.00 0.00 86 1007.6
20260506020327 25 229 4.8 11.3 0.00 0.00 0.00 86 1007.7
20260506015824 25 225 6.4 6.4 0.00 0.00 0.00 86 1007.7
20260506015321 25 173 0.0 6.4 0.00 0.00 0.00 86 1007.7
20260506014818 25 228 3.2 8.0 0.00 0.00 0.00 86 1007.6
20260506014315 25 157 0.0 8.0 0.00 0.00 0.00 86 1007.4
20260506013812 25 90 1.6 3.2 0.00 0.00 0.00 86 1007.3
20260506013309 25 212 0.0 3.2 0.00 0.00 0.00 85 1007.3
20260506012805 25 113 3.2 4.8 0.00 0.00 0.00 85 1007.2
20260506012307 25 106 0.0 3.2 0.00 0.00 0.00 85 1007.3
20260506011759 26 90 0.0 3.2 0.00 0.00 0.00 84 1007.5
20260506011256 26 165 0.0 4.8 0.00 0.00 0.00 83 1007.3
20260506010754 26 106 0.0 1.6 0.00 0.00 0.00 83 1007.5
20260506010251 26 187 1.6 3.2 0.00 0.00 0.00 82 1007.5
20260506005748 26 105 3.2 4.8 0.00 0.00 0.00 82 1007.4
20260506005245 26 246 1.6 4.8 0.00 0.00 0.00 81 1007.7
20260506004741 26 187 3.2 3.2 0.00 0.00 0.00 80 1007.6
20260506004239 27 203 0.0 3.2 0.00 0.00 0.00 80 1007.4
20260506003734 27 265 0.0 4.8 0.00 0.00 0.00 79 1007.5
20260506003231 27 155 4.8 4.8 0.00 0.00 0.00 79 1007.4
20260506002727 27 168 0.0 9.7 0.00 0.00 0.00 78 1007.3
20260506002223 27 175 3.2 4.8 0.00 0.00 0.00 78 1007.3
20260506001719 27 206 1.6 4.8 0.00 0.00 0.00 78 1007.3
20260506001217 27 194 0.0 9.7 0.00 0.00 0.00 78 1007.3
20260506000714 27 127 0.0 6.4 0.00 0.00 0.00 78 1007.4
20260506000212 27 253 3.2 6.4 0.00 0.00 0.00 78 1007.2
20260505235709 27 160 1.6 6.4 0.00 0.00 0.00 77 1007.3
20260505235206 27 150 4.8 8.0 0.00 0.00 0.00 76 1007.2
20260505234703 28 262 0.0 6.4 0.00 0.00 0.00 76 1007.0
20260505234200 27 206 3.2 9.7 0.00 0.00 0.00 74 1007.0
20260505233656 28 157 1.6 12.9 0.00 0.00 0.00 75 1007.0
20260505233154 28 233 6.4 9.7 0.00 0.00 0.00 74 1006.7
20260505232652 28 180 0.0 11.3 0.00 0.00 0.00 74 1007.1
20260505232149 28 156 3.2 9.7 0.00 0.00 0.00 74 1006.9
20260505231646 27 180 1.6 14.5 0.00 0.00 0.00 76 1007.0
20260505231145 27 238 8.0 9.7 0.00 0.00 0.00 75 1007.0
20260505230642 27 237 6.4 17.7 0.00 0.00 0.00 74 1007.1
20260505230139 27 218 8.0 8.0 0.00 0.00 0.00 75 1006.8
20260505225635 27 219 11.3 12.9 0.00 0.00 0.00 75 1007.0
20260505225131 27 232 0.0 14.5 0.00 0.00 0.00 75 1007.0